^^
Your Local Weather - Clay, NY Station Historical Data
Daily Summary for February 21, 2017 Units:  Metric    English   Both
« Previous Day
Next Day »
Daily Weekly Monthly Yearly Custom
  High: Low: Average:
Temperature: 8.7 °C -5.7 °C 2.3 °C
Dew Point: 1.8 °C -8.6 °C -5.2 °C
Humidity: 89% 35% 61%
Wind Speed: 9.7km/h 0km/h 3.9km/h
Wind Gust: 16.1km/h - -
Wind- - ESE
Pressure: 1027.3 hPa 1014.4 hPa -
Precipitation: 0.25 mm    
Historical Graphs
 
 
Tabular Data for February 21, 2017
Time Temperature Dew Point Pressure Wind Wind Speed Wind Gust Humidity Rainfall Rate (Hourly) solar
00:06 -5.7 °C -8.4 °C 1027.3 hPa Calm     81% 0 mm 0 W/m2
00:12 -5.7 °C -8.2 °C 1027.3 hPa Calm     82% 0 mm 0 W/m2
00:18 -5.6 °C -8.2 °C 1027.3 hPa Calm     82% 0 mm 0 W/m2
00:26 -5.7 °C -8.1 °C 1027.3 hPa Calm     83% 0 mm 0 W/m2
00:32 -5.6 °C -8 °C 1027 hPa Calm   3.2 km/h 83% 0 mm 0 W/m2
00:38 -5.6 °C -8 °C 1027 hPa Calm     83% 0 mm 0 W/m2
00:45 -5.6 °C -8.2 °C 1026.6 hPa Calm     82% 0 mm 0 W/m2
00:56 -5.7 °C -8.1 °C 1026.6 hPa Calm     83% 0 mm 0 W/m2
01:06 -5.6 °C -8.1 °C 1026.6 hPa Calm     83% 0 mm 0 W/m2
01:12 -5.4 °C -7.9 °C 1026.3 hPa Calm     83% 0 mm 0 W/m2
01:18 -5.3 °C -7.8 °C 1026.3 hPa Calm     83% 0 mm 0 W/m2
01:26 -5.3 °C -7.9 °C 1026.3 hPa Calm     82% 0 mm 0 W/m2
01:32 -5.2 °C -7.9 °C 1026.3 hPa NE 1.6 km/h 3.2 km/h 81% 0 mm 0 W/m2
01:38 -4.8 °C -7.9 °C 1026 hPa ENE 1.6 km/h 1.6 km/h 79% 0 mm 0 W/m2
01:46 -4.7 °C -8 °C 1025.6 hPa Calm     78% 0 mm 0 W/m2
01:52 -4.7 °C -8.1 °C 1026.3 hPa Calm     77% 0 mm 0 W/m2
01:58 -4.6 °C -8.2 °C 1026.3 hPa Calm     76% 0 mm 0 W/m2
02:04 -4.7 °C -8.3 °C 1026.3 hPa Calm     76% 0 mm 0 W/m2
02:10 -4.8 °C -8.2 °C 1026.6 hPa Calm     77% 0 mm 0 W/m2
02:16 -4.9 °C -8.2 °C 1026 hPa Calm   3.2 km/h 78% 0 mm 0 W/m2
02:22 -5.3 °C -8.3 °C 1025.6 hPa ENE 1.6 km/h 3.2 km/h 79% 0 mm 0 W/m2
02:28 -5.2 °C -8.2 °C 1025.6 hPa East 1.6 km/h 4.8 km/h 79% 0 mm 0 W/m2
02:36 -5.1 °C -8.2 °C 1025.6 hPa ENE 3.2 km/h 8 km/h 79% 0 mm 0 W/m2
02:42 -4.8 °C -8 °C 1025.3 hPa East 4.8 km/h 8 km/h 78% 0 mm 0 W/m2
02:48 -4.6 °C -8.2 °C 1024.9 hPa East 4.8 km/h 8 km/h 76% 0 mm 0 W/m2
02:56 -4.3 °C -8.1 °C 1025.3 hPa East 3.2 km/h 3.2 km/h 75% 0 mm 0 W/m2
03:04 -4.2 °C -7.9 °C 1025.6 hPa ESE 1.6 km/h 1.6 km/h 75% 0 mm 0 W/m2
03:10 -4.1 °C -7.9 °C 1025.6 hPa Calm     75% 0 mm 0 W/m2
03:16 -4.1 °C -8.1 °C 1026 hPa Calm     74% 0 mm 0 W/m2
03:22 -4.2 °C -8.1 °C 1026 hPa Calm     74% 0 mm 0 W/m2
03:28 -4.3 °C -7.9 °C 1026 hPa Calm   3.2 km/h 76% 0 mm 0 W/m2
03:36 -4.4 °C -7.9 °C 1025.6 hPa ENE 3.2 km/h 3.2 km/h 77% 0 mm 0 W/m2
03:42 -4.5 °C -7.8 °C 1025.3 hPa ENE 3.2 km/h 4.8 km/h 78% 0 mm 0 W/m2
03:48 -4.4 °C -7.7 °C 1025.3 hPa East 3.2 km/h 3.2 km/h 78% 0 mm 0 W/m2
03:56 -4.3 °C -7.8 °C 1025.3 hPa ENE 3.2 km/h 4.8 km/h 77% 0 mm 0 W/m2
04:04 -4.2 °C -7.6 °C 1024.9 hPa East 4.8 km/h 4.8 km/h 77% 0 mm 0 W/m2
04:10 -4.2 °C -7.8 °C 1025.3 hPa East 4.8 km/h 4.8 km/h 76% 0 mm 0 W/m2
04:16 -4.2 °C -7.8 °C 1025.3 hPa East 3.2 km/h 4.8 km/h 76% 0 mm 0 W/m2
04:22 -4.2 °C -7.8 °C 1025.3 hPa East 3.2 km/h 3.2 km/h 76% 0 mm 0 W/m2
04:28 -4.2 °C -7.8 °C 1024.9 hPa ENE 3.2 km/h 3.2 km/h 76% 0 mm 0 W/m2
04:37 -4.3 °C -7.7 °C 1024.3 hPa East 3.2 km/h 4.8 km/h 77% 0 mm 0 W/m2
04:46 -4.2 °C -7.8 °C 1024.3 hPa East 6.4 km/h 6.4 km/h 76% 0 mm 0 W/m2
04:52 -4.1 °C -7.8 °C 1024.3 hPa ENE 6.4 km/h 8 km/h 75% 0 mm 0 W/m2
04:58 -3.9 °C -7.9 °C 1023.9 hPa ENE 6.4 km/h 6.4 km/h 74% 0 mm 0 W/m2
05:06 -3.9 °C -7.9 °C 1023.9 hPa ENE 6.4 km/h 6.4 km/h 74% 0 mm 0 W/m2
05:12 -3.9 °C -7.8 °C 1023.9 hPa SE 4.8 km/h 6.4 km/h 74% 0 mm 0 W/m2
05:18 -3.8 °C -7.8 °C 1023.9 hPa SE 4.8 km/h 4.8 km/h 74% 0 mm 0 W/m2
05:26 -3.8 °C -7.8 °C 1024.3 hPa NE 3.2 km/h 3.2 km/h 74% 0 mm 0 W/m2
05:32 -3.8 °C -7.9 °C 1023.9 hPa ENE 3.2 km/h 11.3 km/h 73% 0 mm 0 W/m2
05:38 -3.7 °C -7.8 °C 1023.6 hPa East 4.8 km/h 4.8 km/h 73% 0 mm 0 W/m2
05:46 -3.7 °C -8 °C 1023.6 hPa East 4.8 km/h 8 km/h 72% 0 mm 0 W/m2
05:52 -3.6 °C -7.9 °C 1023.9 hPa East 4.8 km/h 8 km/h 72% 0 mm 0 W/m2
05:58 -3.6 °C -7.9 °C 1023.9 hPa ENE 4.8 km/h 8 km/h 72% 0 mm 0 W/m2
06:04 -3.6 °C -7.9 °C 1023.9 hPa ENE 4.8 km/h 4.8 km/h 72% 0 mm 0 W/m2
06:10 -3.6 °C -8.1 °C 1023.9 hPa NE 4.8 km/h 4.8 km/h 71% 0 mm 0 W/m2
06:16 -3.6 °C -7.9 °C 1023.9 hPa East 4.8 km/h 4.8 km/h 72% 0 mm 0 W/m2
06:22 -3.5 °C -8 °C 1023.9 hPa East 4.8 km/h 9.7 km/h 71% 0 mm 0 W/m2
06:28 -3.4 °C -7.9 °C 1023.6 hPa East 4.8 km/h 8 km/h 71% 0 mm 0 W/m2
06:36 -3.4 °C -8.1 °C 1023.6 hPa ENE 6.4 km/h 6.4 km/h 70% 0 mm 0 W/m2
06:42 -3.3 °C -8 °C 1023.2 hPa ENE 6.4 km/h 8 km/h 70% 0 mm 5 W/m2
06:48 -3.3 °C -8 °C 1023.6 hPa ESE 4.8 km/h 6.4 km/h 70% 0 mm 11 W/m2
06:56 -3.3 °C -8 °C 1023.2 hPa East 4.8 km/h 8 km/h 70% 0 mm 11 W/m2
07:06 -3.1 °C -7.8 °C 1023.2 hPa ENE 4.8 km/h 4.8 km/h 70% 0 mm 23 W/m2
07:12 -3.1 °C -7.8 °C 1023.2 hPa East 4.8 km/h 4.8 km/h 70% 0 mm 23 W/m2
07:18 -3 °C -7.9 °C 1023.2 hPa ENE 6.4 km/h 6.4 km/h 69% 0 mm 28 W/m2
07:26 -2.9 °C -7.8 °C 1023.6 hPa ENE 4.8 km/h 4.8 km/h 69% 0 mm 33 W/m2
07:32 -2.8 °C -7.9 °C 1023.2 hPa NNE 4.8 km/h 8 km/h 68% 0 mm 39 W/m2
07:38 -2.8 °C -7.7 °C 1023.2 hPa NE 4.8 km/h 9.7 km/h 69% 0 mm 47 W/m2
07:46 -2.7 °C -7.9 °C 1023.2 hPa ENE 4.8 km/h 6.4 km/h 67% 0 mm 47 W/m2
07:52 -2.6 °C -7.8 °C 1023.6 hPa ENE 3.2 km/h 6.4 km/h 67% 0 mm 49 W/m2
07:58 -2.5 °C -7.6 °C 1023.2 hPa ENE 3.2 km/h 4.8 km/h 68% 0 mm 51 W/m2
08:04 -2.4 °C -7.7 °C 1023.2 hPa ENE 3.2 km/h 4.8 km/h 67% 0 mm 62 W/m2
08:09 -2.4 °C -7.7 °C 1022.9 hPa ENE 4.8 km/h 8 km/h 67% 0 mm 77 W/m2
08:16 -2.2 °C -7.5 °C 1022.6 hPa East 6.4 km/h 8 km/h 67% 0 mm 104 W/m2
08:22 -2.1 °C -7.6 °C 1022.6 hPa ENE 6.4 km/h 8 km/h 66% 0 mm 118 W/m2
08:28 -1.9 °C -7.7 °C 1022.6 hPa East 6.4 km/h 6.4 km/h 65% 0 mm 113 W/m2
08:36 -1.7 °C -7.7 °C 1021.9 hPa ENE 6.4 km/h 8 km/h 64% 0 mm 111 W/m2
08:42 -1.6 °C -7.6 °C 1021.9 hPa ENE 6.4 km/h 8 km/h 64% 0 mm 118 W/m2
08:48 -1.4 °C -7.6 °C 1021.9 hPa East 4.8 km/h 9.7 km/h 63% 0 mm 137 W/m2
08:56 -1.2 °C -7.4 °C 1021.9 hPa ENE 3.2 km/h 4.8 km/h 63% 0 mm 149 W/m2
09:05 -0.9 °C -7.5 °C 1021.9 hPa ESE 4.8 km/h 6.4 km/h 61% 0 mm 167 W/m2
09:12 -0.7 °C -7.3 °C 1021.9 hPa SE 4.8 km/h 4.8 km/h 61% 0 mm 188 W/m2
09:18 -0.4 °C -7.2 °C 1021.9 hPa East 3.2 km/h 9.7 km/h 60% 0 mm 211 W/m2
09:26 -0.1 °C -7.6 °C 1021.9 hPa ENE 4.8 km/h 6.4 km/h 57% 0 mm 218 W/m2
09:32 0.1 °C -7.4 °C 1021.9 hPa East 4.8 km/h 6.4 km/h 57% 0 mm 230 W/m2
09:38 0.3 °C -7.2 °C 1021.6 hPa ESE 4.8 km/h 11.3 km/h 57% 0 mm 244 W/m2
09:46 0.7 °C -7.1 °C 1021.6 hPa ENE 4.8 km/h 6.4 km/h 56% 0 mm 264 W/m2
09:52 0.8 °C -7.2 °C 1021.6 hPa ENE 6.4 km/h 6.4 km/h 55% 0 mm 230 W/m2
09:58 1 °C -7.3 °C 1021.6 hPa SSE 6.4 km/h 6.4 km/h 54% 0 mm 206 W/m2
10:04 1.2 °C -7.3 °C 1021.6 hPa ENE 4.8 km/h 4.8 km/h 53% 0 mm 221 W/m2
10:10 1.4 °C -7.3 °C 1020.9 hPa East 6.4 km/h 9.7 km/h 52% 0 mm 255 W/m2
10:18 1.9 °C -7.2 °C 1020.9 hPa ENE 6.4 km/h 6.4 km/h 51% 0 mm 369 W/m2
10:26 2.4 °C -7 °C 1020.5 hPa East 6.4 km/h 6.4 km/h 50% 0 mm 283 W/m2
10:32 2.8 °C -6.8 °C 1020.2 hPa East 4.8 km/h 6.4 km/h 49% 0 mm 257 W/m2
10:38 3.1 °C -7.1 °C 1020.2 hPa ENE 4.8 km/h 4.8 km/h 47% 0 mm 220 W/m2
10:45 3.8 °C -7.6 °C 1019.9 hPa SSE 4.8 km/h 8 km/h 43% 0 mm 283 W/m2
10:52 4.3 °C -8.2 °C 1019.9 hPa SSE 4.8 km/h 12.9 km/h 40% 0 mm 292 W/m2
10:58 4.6 °C -7.9 °C 1020.2 hPa East 4.8 km/h 4.8 km/h 40% 0 mm 241 W/m2
11:06 4.8 °C -7.3 °C 1019.9 hPa SE 3.2 km/h 3.2 km/h 41% 0 mm 236 W/m2
11:12 5.1 °C -8.1 °C 1019.9 hPa ESE 4.8 km/h 8 km/h 38% 0 mm 272 W/m2
11:18 5.3 °C -8.6 °C 1019.9 hPa SSE 6.4 km/h 6.4 km/h 36% 0 mm 316 W/m2
11:26 5.6 °C -7.7 °C 1019.9 hPa SE 6.4 km/h 6.4 km/h 38% 0 mm 355 W/m2
11:32 5.7 °C -8.3 °C 1019.5 hPa SSE 6.4 km/h 12.9 km/h 36% 0 mm 313 W/m2
11:38 5.9 °C -8 °C 1019.2 hPa ESE 8 km/h 8 km/h 36% 0 mm 341 W/m2
11:46 6.3 °C -6.9 °C 1019.2 hPa South 6.4 km/h 8 km/h 38% 0 mm 341 W/m2
11:58 6.7 °C -7.3 °C 1019.2 hPa SSE 9.7 km/h 9.7 km/h 36% 0 mm 417 W/m2
12:04 6.9 °C -7.2 °C 1018.8 hPa ESE 9.7 km/h 14.5 km/h 36% 0 mm 345 W/m2
12:10 6.9 °C -6.8 °C 1018.5 hPa SE 8 km/h 8 km/h 37% 0 mm 367 W/m2
12:15 6.9 °C -6.8 °C 1018.5 hPa SSE 8 km/h 12.9 km/h 37% 0 mm 325 W/m2
12:22 6.8 °C -6.9 °C 1018.2 hPa SSE 9.7 km/h 11.3 km/h 37% 0 mm 287 W/m2
12:28 6.7 °C -6.9 °C 1018.2 hPa South 9.7 km/h 11.3 km/h 37% 0 mm 285 W/m2
12:34 6.9 °C -5.8 °C 1017.8 hPa SSE 6.4 km/h 9.7 km/h 40% 0 mm 278 W/m2
12:40 7.1 °C -6.3 °C 1017.8 hPa SE 4.8 km/h 11.3 km/h 38% 0 mm 276 W/m2
12:45 7.1 °C -7.1 °C 1017.8 hPa SSE 6.4 km/h 11.3 km/h 36% 0 mm 265 W/m2
12:52 7.1 °C -6.3 °C 1017.5 hPa SSE 8 km/h 8 km/h 38% 0 mm 306 W/m2
12:58 7.1 °C -6.6 °C 1017.8 hPa SSE 8 km/h 12.9 km/h 37% 0 mm 318 W/m2
13:04 7.3 °C -6.1 °C 1017.8 hPa SSE 8 km/h 11.3 km/h 38% 0 mm 292 W/m2
13:09 7.4 °C -6.7 °C 1017.5 hPa SE 6.4 km/h 11.3 km/h 36% 0 mm 322 W/m2
13:16 7.4 °C -6.7 °C 1017.5 hPa SE 8 km/h 11.3 km/h 36% 0 mm 311 W/m2
13:22 7.9 °C -6.7 °C 1017.5 hPa South 6.4 km/h 8 km/h 35% 0 mm 462 W/m2
13:28 8.2 °C -6.1 °C 1017.2 hPa SSE 6.4 km/h 9.7 km/h 36% 0 mm 413 W/m2
13:33 8 °C -5.5 °C 1017.2 hPa SE 8 km/h 16.1 km/h 38% 0 mm 327 W/m2
13:40 7.9 °C -6.6 °C 1017.2 hPa SSE 9.7 km/h 9.7 km/h 35% 0 mm 385 W/m2
13:46 8.1 °C -5.7 °C 1017.2 hPa SSW 6.4 km/h 9.7 km/h 37% 0 mm 346 W/m2
13:52 8.3 °C -5.9 °C 1017.2 hPa SSE 6.4 km/h 6.4 km/h 36% 0 mm 267 W/m2
13:58 8.2 °C -6 °C 1016.8 hPa South 8 km/h 8 km/h 36% 0 mm 287 W/m2
14:04 8.2 °C -6 °C 1016.8 hPa SSE 9.7 km/h 9.7 km/h 36% 0 mm 264 W/m2
14:10 8 °C -5.8 °C 1016.5 hPa SSE 9.7 km/h 12.9 km/h 37% 0 mm 260 W/m2
14:16 8 °C -6.2 °C 1016.5 hPa South 9.7 km/h 12.9 km/h 36% 0 mm 230 W/m2
14:22 8.1 °C -5.1 °C 1016.1 hPa South 6.4 km/h 8 km/h 39% 0 mm 229 W/m2
14:28 8.2 °C -6.1 °C 1016.1 hPa South 8 km/h 9.7 km/h 36% 0 mm 225 W/m2
14:34 8.2 °C -5.3 °C 1016.1 hPa SSE 8 km/h 8 km/h 38% 0 mm 220 W/m2
14:40 8.2 °C -6.1 °C 1016.1 hPa SSE 6.4 km/h 8 km/h 36% 0 mm 241 W/m2
14:45 8.4 °C -5.8 °C 1016.1 hPa SSW 6.4 km/h 9.7 km/h 36% 0 mm 260 W/m2
14:52 8.6 °C -6 °C 1016.1 hPa SSE 4.8 km/h 6.4 km/h 35% 0 mm 250 W/m2
14:58 8.7 °C -4.5 °C 1016.1 hPa South 4.8 km/h 11.3 km/h 39% 0 mm 239 W/m2
15:03 8.7 °C -5.9 °C 1015.8 hPa SE 3.2 km/h 8 km/h 35% 0 mm 255 W/m2
15:10 8.7 °C -5.6 °C 1015.8 hPa SE 6.4 km/h 6.4 km/h 36% 0 mm 237 W/m2
15:16 8.7 °C -5.2 °C 1016.1 hPa South 6.4 km/h 8 km/h 37% 0 mm 171 W/m2
15:22 8.5 °C -5.4 °C 1016.1 hPa SSE 6.4 km/h 8 km/h 37% 0 mm 144 W/m2
15:28 8.4 °C -5.4 °C 1016.1 hPa SSE 6.4 km/h 9.7 km/h 37% 0 mm 142 W/m2
15:34 8.6 °C -5.3 °C 1015.8 hPa SSE 6.4 km/h 8 km/h 37% 0 mm 162 W/m2
15:40 8.6 °C -5.3 °C 1015.8 hPa SSE 6.4 km/h 6.4 km/h 37% 0 mm 155 W/m2
15:45 8.6 °C -5.3 °C 1015.8 hPa South 6.4 km/h 11.3 km/h 37% 0 mm 155 W/m2
15:52 8.6 °C -5.3 °C 1015.8 hPa SSW 8 km/h 9.7 km/h 37% 0 mm 127 W/m2
15:58 8.6 °C -5 °C 1015.8 hPa South 8 km/h 11.3 km/h 38% 0 mm 102 W/m2
16:04 8.6 °C -5.3 °C 1015.8 hPa SSE 8 km/h 9.7 km/h 37% 0 mm 93 W/m2
16:10 8.6 °C -5.3 °C 1015.5 hPa SSW 8 km/h 8 km/h 37% 0 mm 77 W/m2
16:15 8.4 °C -5.1 °C 1015.1 hPa South 8 km/h 16.1 km/h 38% 0 mm 70 W/m2
16:22 8.5 °C -5.1 °C 1015.1 hPa South 9.7 km/h 12.9 km/h 38% 0 mm 77 W/m2
16:28 8.5 °C -5.1 °C 1015.1 hPa SE 8 km/h 12.9 km/h 38% 0 mm 65 W/m2
16:34 8.4 °C -4.1 °C 1015.1 hPa SE 6.4 km/h 8 km/h 41% 0 mm 60 W/m2
16:40 8.3 °C -4.8 °C 1015.1 hPa SE 6.4 km/h 8 km/h 39% 0 mm 56 W/m2
16:46 8.4 °C -5.1 °C 1015.1 hPa South 4.8 km/h 8 km/h 38% 0 mm 53 W/m2
16:52 8.4 °C -5.1 °C 1015.1 hPa SSE 3.2 km/h 8 km/h 38% 0 mm 46 W/m2
16:58 8.4 °C -5.1 °C 1015.1 hPa SSE 4.8 km/h 8 km/h 38% 0 mm 39 W/m2
17:04 8.4 °C -5.1 °C 1015.1 hPa SSE 6.4 km/h 8 km/h 38% 0 mm 32 W/m2
17:10 8.4 °C -5.5 °C 1015.1 hPa SSE 8 km/h 8 km/h 37% 0 mm 26 W/m2
17:16 8.4 °C -5.1 °C 1015.1 hPa SSE 6.4 km/h 8 km/h 38% 0 mm 21 W/m2
17:22 8.4 °C -5.1 °C 1015.5 hPa SSE 8 km/h 8 km/h 38% 0 mm 12 W/m2
17:28 8.3 °C -5.2 °C 1015.5 hPa South 6.4 km/h 8 km/h 38% 0 mm 9 W/m2
17:34 8.2 °C -4.9 °C 1015.5 hPa South 4.8 km/h 6.4 km/h 39% 0 mm 5 W/m2
17:40 8.1 °C -4.7 °C 1015.5 hPa SSE 4.8 km/h 4.8 km/h 40% 0 mm 0 W/m2
17:45 8.1 °C -4.7 °C 1015.5 hPa SSE 6.4 km/h 6.4 km/h 40% 0 mm 0 W/m2
17:52 7.9 °C -4.8 °C 1015.1 hPa SE 4.8 km/h 4.8 km/h 40% 0 mm 0 W/m2
17:58 7.9 °C -4.9 °C 1015.5 hPa SSE 3.2 km/h 6.4 km/h 40% 0 mm 0 W/m2
18:04 7.9 °C -4.8 °C 1015.5 hPa ESE 4.8 km/h 4.8 km/h 40% 0 mm 0 W/m2
18:10 7.8 °C -4.6 °C 1015.5 hPa SE 3.2 km/h 3.2 km/h 41% 0 mm 0 W/m2
18:16 7.8 °C -4.9 °C 1015.5 hPa SE 3.2 km/h 3.2 km/h 40% 0 mm 0 W/m2
18:22 7.7 °C -4.4 °C 1015.1 hPa SE 3.2 km/h 4.8 km/h 42% 0 mm 0 W/m2
18:28 7.8 °C -4.7 °C 1015.1 hPa SE 4.8 km/h 6.4 km/h 41% 0 mm 0 W/m2
18:34 7.8 °C -4.6 °C 1015.5 hPa South 6.4 km/h 9.7 km/h 41% 0 mm 0 W/m2
18:40 7.9 °C -4.3 °C 1015.5 hPa SE 4.8 km/h 4.8 km/h 42% 0 mm 0 W/m2
18:45 7.8 °C -4.3 °C 1015.8 hPa SE 3.2 km/h 6.4 km/h 42% 0 mm 0 W/m2
18:52 7.7 °C -4.2 °C 1015.8 hPa SSE 3.2 km/h 3.2 km/h 43% 0 mm 0 W/m2
18:58 7.4 °C -3.2 °C 1015.8 hPa SSE 1.6 km/h 4.8 km/h 47% 0 mm 0 W/m2
19:03 7.3 °C -3.6 °C 1016.1 hPa SSE 1.6 km/h 4.8 km/h 46% 0 mm 0 W/m2
19:10 7.2 °C -2.8 °C 1015.8 hPa Calm     49% 0 mm 0 W/m2
19:16 6.9 °C -2.3 °C 1015.8 hPa Calm   1.6 km/h 52% 0 mm 0 W/m2
19:22 6.4 °C -2.5 °C 1015.5 hPa SSE 1.6 km/h 1.6 km/h 53% 0 mm 0 W/m2
19:28 6.3 °C -2.6 °C 1015.8 hPa SSE 1.6 km/h 3.2 km/h 53% 0 mm 0 W/m2
19:34 6.2 °C -1.4 °C 1015.5 hPa Calm   1.6 km/h 58% 0 mm 0 W/m2
19:39 5.6 °C -0.5 °C 1015.5 hPa Calm     65% 0 mm 0 W/m2
19:46 5.2 °C 0 °C 1015.1 hPa Calm   1.6 km/h 69% 0 mm 0 W/m2
19:52 5.1 °C 0.1 °C 1015.1 hPa SSE 1.6 km/h 1.6 km/h 70% 0 mm 0 W/m2
19:58 5.2 °C -0.1 °C 1015.1 hPa SSE 1.6 km/h 1.6 km/h 69% 0 mm 0 W/m2
20:04 5.2 °C -0.2 °C 1015.5 hPa Calm     68% 0 mm 0 W/m2
20:10 5.2 °C 0.2 °C 1015.5 hPa Calm     70% 0 mm 0 W/m2
20:15 5.1 °C 0.4 °C 1015.8 hPa Calm     72% 0 mm 0 W/m2
20:22 4.8 °C 0.6 °C 1015.8 hPa Calm     74% 0 mm 0 W/m2
20:28 4.4 °C 0.5 °C 1015.5 hPa Calm     76% 0 mm 0 W/m2
20:33 4.1 °C 0.8 °C 1015.5 hPa Calm     79% 0 mm 0 W/m2
20:40 3.8 °C 0.9 °C 1015.8 hPa Calm     81% 0 mm 0 W/m2
20:46 3.6 °C 0.8 °C 1015.8 hPa Calm     82% 0 mm 0 W/m2
20:52 3.4 °C 0.9 °C 1015.8 hPa Calm     84% 0 mm 0 W/m2
20:58 3.3 °C 1.1 °C 1015.8 hPa Calm     85% 0 mm 0 W/m2
21:04 3.3 °C 1.2 °C 1015.8 hPa Calm   1.6 km/h 86% 0 mm 0 W/m2
21:09 2.9 °C 0.8 °C 1015.5 hPa SSE 1.6 km/h 1.6 km/h 86% 0 mm 0 W/m2
21:16 2.9 °C 1 °C 1015.5 hPa Calm   1.6 km/h 87% 0 mm 0 W/m2
21:22 3.1 °C 1.3 °C 1015.5 hPa Calm   1.6 km/h 88% 0 mm 0 W/m2
21:28 3.3 °C 1.6 °C 1015.5 hPa Calm   3.2 km/h 88% 0 mm 0 W/m2
21:33 3.4 °C 1.8 °C 1015.1 hPa Calm     89% 0 mm 0 W/m2
21:40 3.4 °C 1.6 °C 1015.1 hPa Calm     88% 0 mm 0 W/m2
21:46 3.4 °C 1.6 °C 1015.5 hPa Calm     88% 0 mm 0 W/m2
21:52 3.4 °C 1.6 °C 1015.5 hPa Calm     88% 0 mm 0 W/m2
21:58 3.4 °C 1.7 °C 1015.1 hPa Calm     88% 0 mm 0 W/m2
22:04 3.4 °C 1.7 °C 1015.1 hPa Calm     88% 0 mm 0 W/m2
22:10 3.6 °C 1.8 °C 1015.1 hPa Calm     88% 0 mm 0 W/m2
22:16 3.4 °C 1.5 °C 1015.1 hPa Calm   1.6 km/h 87% 0 mm 0 W/m2
22:22 3.4 °C 1.5 °C 1014.8 hPa SE 1.6 km/h 1.6 km/h 87% 0 mm 0 W/m2
22:28 3.7 °C 1.6 °C 1014.8 hPa SE 1.6 km/h 1.6 km/h 86% 0 mm 0 W/m2
22:34 3.9 °C 1.5 °C 1014.8 hPa SE 1.6 km/h 1.6 km/h 84% 0 mm 0 W/m2
22:40 4.1 °C 1.4 °C 1014.8 hPa Calm     83% 0 mm 0 W/m2
22:46 4.1 °C 1.4 °C 1014.8 hPa Calm     83% 0 mm 0 W/m2
22:52 4.1 °C 1.3 °C 1014.8 hPa Calm     82% 0 mm 0 W/m2
22:58 4.1 °C 1.3 °C 1014.8 hPa Calm     82% 0 mm 0 W/m2
23:04 3.9 °C 1.3 °C 1014.8 hPa Calm     83% 0 mm 0 W/m2
23:10 3.7 °C 1.2 °C 1014.8 hPa Calm   1.6 km/h 84% 0 mm 0 W/m2
23:16 3.8 °C 1.4 °C 1014.8 hPa East 1.6 km/h 3.2 km/h 84% 0 mm 0 W/m2
23:22 3.9 °C 1.3 °C 1014.8 hPa East 1.6 km/h 1.6 km/h 83% 0 mm 0 W/m2
23:28 3.8 °C 1.2 °C 1014.4 hPa East 1.6 km/h 3.2 km/h 83% 0 mm 0 W/m2
23:34 3.6 °C 1.2 °C 1014.4 hPa East 1.6 km/h 1.6 km/h 84% 0 mm 0 W/m2
23:40 3.6 °C 1.2 °C 1014.4 hPa ENE 1.6 km/h 3.2 km/h 84% 0 mm 0 W/m2
23:46 3.4 °C 1 °C 1014.4 hPa ENE 1.6 km/h 3.2 km/h 84% 0 mm 0 W/m2
23:52 3.4 °C 1 °C 1014.4 hPa ENE 1.6 km/h 1.6 km/h 84% 0 mm 0 W/m2
23:58 3.3 °C 1.1 °C 1014.4 hPa ENE 1.6 km/h 1.6 km/h 85% 0 mm 0 W/m2
Country Meadow, Clay, NY, USA
Compliments of Weather Underground - 2 mb